Regional Weather Roundup
Issued by NWS

Home | Current Version | Previous Version | Graphics & Text | Print | Product List | Glossary On
Versions: 1 2 3 4 5 6 7 8 9 10 11 12 13 14 15 16 17 18 19 20 21 22 23 24 25 26 27 28 29 30 31 32 33 34 35 36 37 38 39 40 41 42 43 44 45 46 47 48 49 50
000
ASUS43 KIND 191059
RWRIN

WEATHER ROUNDUP FOR INDIANA
NATIONAL WEATHER SERVICE INDIANAPOLIS IN
700 AM EDT SAT APR 19 2014

NOTE: "FAIR" INDICATES FEW OR NO CLOUDS BELOW 12,000 FEET WITH NO
SIGNIFICANT WEATHER AND/OR OBSTRUCTIONS TO VISIBILITY.

* - STATION DOES NOT REPORT WEATHER SUCH AS PRECIPITATION OR FOG.

+ - STATION NOT QUALITY CONTROLLED BY THE NATIONAL WEATHER SERVICE.
    USE DATA WITH CAUTION...ESPECIALLY DEWPOINT AND RELATIVE
    HUMIDITY OBSERVATIONS.

INZ001>003-010>013-019-020-191200-
NORTHWEST INDIANA

CITY           SKY/WX    TMP DP  RH WIND       PRES   REMARKS
GARY /AIRPORT/ CLEAR     37  34  87 NE5       30.37R
VALPARAISO     CLEAR     32  27  81 NE6       30.36R WCI  26

$$

LMZ046-743>745-191200-
SOUTHERN LAKE MICHIGAN

STATION/POSITION TIME  TEMP WIND        PRES
                       AIR  DIR/SP/G
                 (UTC) (F)  (DEG/KT/KT) (MB)
MICHIGAN CITY    1000   39   40/ 11/ 12   N/A

$$

INZ004-005-014>016-021>024-191200-
NORTH CENTRAL INDIANA

CITY           SKY/WX    TMP DP  RH WIND       PRES   REMARKS
GOSHEN         CLEAR     38  33  82 NE6       30.36R
SOUTH BEND     CLEAR     36  29  75 NE3       30.37R

$$

INZ006>009-017-018-025>027-191200-
NORTHEAST INDIANA

CITY           SKY/WX    TMP DP  RH WIND       PRES   REMARKS
ANGOLA *+      CLEAR     37  30  75 E12       30.37R
FORT WAYNE     PTCLDY    39  35  86 E12       30.37R

$$

INZ028-029-035-036-043>045-051>053-191200-
WEST CENTRAL INDIANA

CITY           SKY/WX    TMP DP  RH WIND       PRES   REMARKS
GREENCASTLE +  CLEAR     39  34  81 NE6       30.31R
LAFAYETTE      CLEAR     36  26  67 NE3       30.32R
TERRE HAUTE    CLEAR     41  34  76 N5        30.30R

$$

INZ030>032-037>040-046>048-054>057-064-065-191200-
CENTRAL INDIANA

CITY           SKY/WX    TMP DP  RH WIND       PRES   REMARKS
INDIANAPOLIS   PTCLDY    41  34  76 NE9       30.30R
-EAGLE CREEK   CLEAR     40  32  73 NE5       30.30S
KOKOMO *+      CLEAR     37  30  75 E7        30.32R
MT COMFORT *+  CLEAR     36  36 100 N6        30.31R
SHELBYVILLE    CLEAR     43  35  73 N8        30.29R

$$

INZ033-034-041-042-049-050-058-059-191200-
EAST CENTRAL INDIANA

CITY           SKY/WX    TMP DP  RH WIND       PRES   REMARKS
MUNCIE         CLEAR     41  37  86 E7        30.32R

$$

INZ060-061-067>069-081>083-085>088-191200-
SOUTHWEST INDIANA

CITY           SKY/WX    TMP DP  RH WIND       PRES   REMARKS
EVANSVILLE     CLEAR     52  41  66 N7        30.26R
HUNTINGBURG *+ CLEAR     48  36  61 NE6       30.26R

$$

INZ062-063-066-070>080-084-089>092-191200-
SOUTH CENTRAL AND SOUTHEAST INDIANA

CITY           SKY/WX    TMP DP  RH WIND       PRES   REMARKS
BLOOMINGTON    CLEAR     45  35  68 NE5       30.28R

$$




USA.gov is the U.S. government's official web portal to all federal, state and local government web resources and services.